YMML

Melbourne Airport

Airport
ICAO code
YMML
IATA Code
MEL
Summary
ICAO Region
APAC
ICAO Territory
Location

Tullamarine, Victoria

Serving
Melbourne
Elevation
434 ft
Coordinates
37° 40' 11" S , 144° 50' 55" E
KCC
Airport BS
Bird Strike
Airport WX
Cumulonimbus
Metar
Observation
YMML 032000Z 26004KT 9999 FEW011 SCT110 BKN250 09/08 Q1022
Station
Melbourne Airport
Date/Time
2022-10-03 20:00:00
Wind direction
260°
Wind speed
04 kts
Lowest cloud amount
few clouds
Temperature
9°C
Dew point
8°C
Humidity
93%
QNH
1022 hPa
Weather condition
n/a

Description

Melbourne Airport, also known as Tullamarine Airport, is the primary airport serving the city of Melbourne and the second busiest in Australia.

Climatology

Mild temperate oceanic climate (Köppen climate classification Cfb). Melbourne is known for its changeable weather conditions caused by the city's location on the boundary of the very hot inland areas and the cold southern ocean. Cold fronts in the spring and summer months can be associated with severe weather.

SKYbrary Partners:

Safety knowledge contributed by: